Date String (YYYY-MM-DD hh:mm:ss) UTC,Instrument flags,Ambient pressure (hPa),Sample flow (lpm),Bypass flow (lpm),Sample temperature (°C),Ambient temperature (°C),ASC tube jacket temperature (°C),LED temperature (°C),Box temperature (°C),Sample RH (%),Span deviation,Mass concentration (μg/m³),Mass concentration (μg/m³),Mass concentration (μg/m³)
DateTimeUTC,F1_M11,P_M11,Q1_M11,Q2_M11,T1_M11,T2_M11,T3_M11,T4_M11,T5_M11,U1_M11,ZSPAN_M11,X0_M11,X2_M11,X1_M11
2022-08-06 21:00:00,,0827.5,5.00,0.00,30.5,27.4,00.0,38.9,31.6,33.6,0001.7,0023.77,0009.55,0007.95
2022-08-06 21:01:00,,0827.5,5.00,0.00,30.4,27.2,00.0,38.9,31.5,33.8,0001.5,0023.92,0009.53,0007.94
2022-08-06 21:02:00,,0827.5,5.00,0.00,30.3,27.3,00.0,38.8,31.4,33.8,0000.1,0023.72,0009.46,0007.94
2022-08-06 21:03:00,,0827.5,5.00,0.00,30.2,27.4,00.0,38.8,31.4,34.2,0000.0,0023.45,0009.45,0007.93
2022-08-06 21:04:00,,0827.5,4.99,0.00,30.2,27.6,00.0,38.8,31.4,34.4,0000.0,0022.13,0009.38,0007.93
2022-08-06 21:05:00,,0827.5,5.01,0.00,30.2,27.8,00.0,38.8,31.5,34.2,0000.0,0022.08,0009.39,0007.92
2022-08-06 21:06:00,,0827.5,5.00,0.00,30.2,28.0,00.0,38.8,31.6,34.3,0000.0,0022.49,0009.36,0007.91
2022-08-06 21:07:00,,0827.5,5.00,0.00,30.2,28.2,00.0,38.8,31.7,34.1,0000.0,0022.52,0009.34,0007.88
2022-08-06 21:08:00,,0827.6,5.01,0.00,30.2,28.3,00.0,38.8,31.7,33.8,0000.0,0022.17,0009.29,0007.87
2022-08-06 21:09:00,,0827.5,4.99,0.00,30.2,27.8,00.0,38.8,31.6,34.2,0000.0,0021.26,0009.21,0007.85
2022-08-06 21:10:00,,0827.5,5.01,0.00,30.2,27.4,00.0,38.7,31.5,33.8,0000.0,0020.39,0009.25,0007.82
2022-08-06 21:11:00,,0827.5,5.00,0.00,30.1,27.3,00.0,38.7,31.5,33.9,0002.6,0019.67,0009.29,0007.80
2022-08-06 21:12:00,,0827.5,5.00,0.00,30.0,27.4,00.0,38.7,31.4,34.1,0002.7,0019.10,0009.26,0007.77
2022-08-06 21:13:00,,0827.5,5.00,0.00,30.0,27.6,00.0,38.7,31.3,34.7,0002.8,0019.24,0009.27,0007.76
2022-08-06 21:14:00,,0827.4,5.00,0.00,30.0,27.8,00.0,38.7,31.4,34.8,0002.6,0019.84,0009.26,0007.75
2022-08-06 21:15:00,,0827.4,5.01,0.00,30.0,28.0,00.0,38.7,31.5,34.8,0002.3,0020.19,0009.24,0007.73
2022-08-06 21:16:00,,0827.4,4.99,0.00,30.1,28.2,00.0,38.7,31.7,34.0,0002.5,0020.59,0009.19,0007.71
2022-08-06 21:17:00,,0827.4,5.00,0.00,30.1,28.4,00.0,38.7,31.8,34.2,0002.6,0020.63,0009.14,0007.70
2022-08-06 21:18:00,,0827.4,5.00,0.00,30.2,28.2,00.0,38.7,31.7,34.1,0002.7,0021.11,0009.15,0007.70
2022-08-06 21:19:00,,0827.4,5.00,0.00,30.1,27.6,00.0,38.6,31.5,34.1,0002.4,0021.13,0009.17,0007.70
2022-08-06 21:20:00,,0827.4,5.01,0.00,30.1,27.4,00.0,38.6,31.5,34.4,0002.4,0020.73,0009.20,0007.70
2022-08-06 21:21:00,,0827.5,4.99,0.00,30.0,27.4,00.0,38.6,31.5,34.5,0002.3,0019.98,0009.16,0007.72
2022-08-06 21:22:00,,0827.5,5.01,0.00,30.0,27.5,00.0,38.6,31.4,34.9,0001.7,0019.95,0009.06,0007.71
2022-08-06 21:23:00,,0827.5,5.00,0.00,30.0,27.7,00.0,38.6,31.5,34.9,0001.4,0020.58,0009.13,0007.74
2022-08-06 21:24:00,,0827.4,4.99,0.00,30.2,27.9,00.0,38.6,31.6,34.3,0001.5,0021.24,0009.20,0007.75
2022-08-06 21:25:00,,0827.4,5.00,0.00,30.3,28.1,00.0,38.6,31.7,33.9,0002.0,0021.43,0009.21,0007.74
2022-08-06 21:26:00,,0827.4,5.01,0.00,30.4,28.3,00.0,38.7,31.8,33.8,0002.5,0020.96,0009.21,0007.73
2022-08-06 21:27:00,,0827.4,4.99,0.00,30.4,28.2,00.0,38.7,31.8,33.8,0002.6,0020.83,0009.25,0007.72
2022-08-06 21:28:00,,0827.4,5.01,0.00,30.4,27.6,00.0,38.7,31.6,33.7,0002.5,0020.89,0009.32,0007.72
2022-08-06 21:29:00,,0827.4,5.00,0.00,30.3,27.3,00.0,38.7,31.6,33.8,0001.6,0021.38,0009.30,0007.72
2022-08-06 21:30:00,,0827.3,4.99,0.00,30.3,27.4,00.0,38.7,31.5,34.0,0001.8,0020.46,0009.31,0007.72
2022-08-06 21:31:00,,0827.3,5.01,0.00,30.2,27.5,00.0,38.7,31.4,34.3,0001.7,0021.15,0009.31,0007.70
2022-08-06 21:32:00,,0827.2,4.98,0.00,30.1,27.7,00.0,38.7,31.5,34.4,0001.4,0021.60,0009.26,0007.69
2022-08-06 21:33:00,,0827.2,5.01,0.00,30.1,27.9,00.0,38.7,31.6,34.3,0001.7,0022.06,0009.27,0007.69
2022-08-06 21:34:00,,0827.1,4.99,0.00,30.2,28.1,00.0,38.7,31.6,34.2,0001.9,0021.79,0009.28,0007.67
2022-08-06 21:35:00,,0827.4,4.99,0.00,30.2,28.3,00.0,38.7,31.7,34.3,0001.7,0021.73,0009.23,0007.65
2022-08-06 21:36:00,,0827.0,5.01,0.00,30.2,28.2,00.0,38.7,31.6,34.2,0001.3,0021.15,0009.20,0007.65
2022-08-06 21:37:00,,0827.0,4.99,0.00,30.1,27.6,00.0,38.7,31.5,34.5,0000.7,0021.42,0009.21,0007.68
2022-08-06 21:38:00,,0826.9,5.01,0.00,30.1,27.3,00.0,38.7,31.4,34.6,0000.7,0022.20,0009.28,0007.70
2022-08-06 21:39:00,,0827.0,5.00,0.00,30.0,27.3,00.0,38.6,31.3,34.8,0000.6,0022.01,0009.30,0007.73
2022-08-06 21:40:00,,0826.8,4.99,0.00,29.9,27.4,00.0,38.6,31.3,35.2,0000.6,0021.23,0009.36,0007.76
2022-08-06 21:41:00,,0826.8,5.00,0.00,30.1,27.6,00.0,38.6,31.5,34.5,0000.8,0021.81,0009.43,0007.76
2022-08-06 21:42:00,,0826.8,5.00,0.00,30.3,27.8,00.0,38.6,31.7,34.2,0000.8,0020.91,0009.36,0007.75
2022-08-06 21:43:00,,0826.8,5.00,0.00,30.4,28.0,00.0,38.6,31.7,34.6,0000.3,0021.33,0009.43,0007.78
2022-08-06 21:44:00,,0826.8,5.00,0.00,30.4,28.2,00.0,38.7,31.7,34.6,0000.0,0021.10,0009.44,0007.80
2022-08-06 21:45:00,,0826.8,5.00,0.00,30.5,28.2,00.0,38.7,31.7,34.5,0000.0,0021.05,0009.45,0007.82
2022-08-06 21:46:00,,0826.9,5.00,0.00,30.5,27.6,00.0,38.7,31.6,34.5,0000.0,0020.67,0009.50,0007.85
2022-08-06 21:47:00,,0826.9,5.01,0.00,30.4,27.3,00.0,38.7,31.5,34.9,0000.0,0020.25,0009.55,0007.87
2022-08-06 21:48:00,,0827.0,5.00,0.00,30.4,27.3,00.0,38.7,31.5,35.0,0000.0,0020.71,0009.57,0007.89
2022-08-06 21:49:00,,0826.9,4.99,0.00,30.5,27.4,00.0,38.7,31.6,34.2,0000.0,0020.43,0009.53,0007.90
2022-08-06 21:50:00,,0827.2,5.00,0.00,30.6,27.6,00.0,38.7,31.6,34.3,0000.0,0020.09,0009.52,0007.90
2022-08-06 21:51:00,,0827.0,5.00,0.00,30.6,27.8,00.0,38.7,31.6,34.1,0000.0,0020.23,0009.46,0007.93
2022-08-06 21:52:00,,0826.9,5.00,0.00,30.6,28.0,00.0,38.8,31.7,34.3,0000.0,0020.20,0009.42,0007.97
2022-08-06 21:53:00,,0826.9,4.99,0.00,30.7,28.2,00.0,38.8,31.8,35.0,0002.4,0020.41,0009.52,0008.02
2022-08-06 21:54:00,,0827.0,5.01,0.00,30.8,28.2,00.0,38.9,31.9,35.0,0001.4,0020.27,0009.67,0008.09
2022-08-06 21:55:00,,0827.0,5.01,0.00,30.9,27.7,00.0,38.9,31.8,34.5,0000.0,0020.07,0009.78,0008.15
2022-08-06 21:56:00,,0827.1,4.99,0.00,30.9,27.3,00.0,38.9,31.7,34.6,0000.0,0020.56,0009.87,0008.19
2022-08-06 21:57:00,,0827.1,4.99,0.00,30.9,27.3,00.0,38.9,31.6,34.8,0000.6,0021.60,0009.90,0008.22
2022-08-06 21:58:00,,0827.2,5.00,0.00,30.8,27.4,00.0,38.9,31.6,34.8,0001.8,0022.22,0009.97,0008.26
2022-08-06 21:59:00,,0827.1,5.00,0.00,30.8,27.6,00.0,38.9,31.6,35.1,0001.5,0021.95,0010.04,0008.28
